Temp
77 80 83 84 84 84 84 84 84 83 83 83 83 83 83 84 84 84 84 84 84 84 84 84 84 84 84 84 84 84 84 84 84 84 84 84 84 84 83 84 84 83 83
80 82 82 83 84 84 84 83 83 83 83 83 83 84 84 84 84 84 84 84 84 84 84 84 84 84 83 84 84 84 84 84 84 84 84 84 84 84 84 85 84 83 83
81 82 83 83 84 84 83 83 83 83 84 84 84 84 84 84 84 84 84 84 84 84 84 84 84 84 84 83 83 84 83 83 84 84 84 80 81 84 84 84 83 83 83
81 82 82 82 83 83 83 83 83 84 84 84 84 84 84 84 84 84 84 84 84 84 84 84 84 84 83 83 83 83 83 83 84 84 80 82 79 84 84 84 83 83 82
82 82 81 83 83 84 83 83 83 84 84 84 84 84 84 84 84 84 84 84 84 84 84 84 84 84 84 83 83 83 83 84 84 84 79 75 73 81 84 83 83 83 83
83 81 82 83 84 84 83 83 83 84 84 84 84 84 84 84 84 84 84 84 84 84 84 84 84 84 84 84 84 83 83 83 84 81 79 77 75 80 84 84 84 84 82
80 80 82 83 83 83 83 83 83 83 84 84 84 84 84 84 84 84 84 84 84 84 84 84 84 84 84 84 84 84 83 84 83 79 78 79 78 82 84 84 84 83 83
81 81 82 83 83 83 84 84 84 84 84 84 84 84 84 84 84 84 84 84 84 84 84 84 84 84 84 84 84 84 84 84 85 79 80 79 79 82 84 84 83 83 83
84 81 80 81 82 84 84 84 84 84 84 84 84 84 84 84 84 84 84 84 84 84 84 84 84 84 84 84 84 84 84 84 80 79 83 77 80 82 84 83 83 83 82
83 81 80 79 80 79 80 84 84 84 84 84 84 84 84 84 85 85 84 83 84 84 84 84 84 84 84 84 83 84 84 84 77 77 74 76 80 82 84 83 83 82 82
84 82 82 80 79 79 78 82 83 84 84 84 84 85 84 80 81 83 83 84 85 85 85 85 84 84 84 83 83 82 82 77 75 74 71 74 80 82 84 83 82 82 82
82 83 83 81 81 81 86 79 77 80 79 78 79 79 79 79 79 85 84 85 85 85 85 84 83 83 84 77 74 76 75 75 73 73 73 76 79 82 83 83 82 82 82
84 85 85 84 84 84 85 79 79 80 79 79 79 79 80 83 83 82 82 80 80 84 82 83 79 77 81 76 73 71 75 77 76 75 77 79 80 82 83 83 82 82 82
85 85 86 86 84 85 84 80 82 82 82 79 80 81 80 80 82 81 79 77 77 76 76 78 77 82 76 77 77 75 75 76 75 76 77 82 82 83 83 82 82 82 82
83 86 84 83 82 82 80 80 81 82 81 82 82 81 81 81 82 82 81 76 77 76 74 75 80 81 78 77 77 79 75 76 77 76 79 83 82 81 82 81 82 81 82
84 83 84 82 82 81 80 80 81 81 82 84 85 83 83 82 81 83 77 75 75 76 80 81 82 79 76 76 78 80 82 81 79 80 79 79 82 81 81 82 82 82 82
84 84 82 81 82 80 79 80 80 81 84 82 84 84 84 82 81 74 74 74 72 75 78 82 76 78 77 79 79 83 84 85 84 81 81 78 79 81 81 81 81 81 81
85 83 84 89 81 79 78 79 80 81 83 84 82 85 85 85 82 75 75 75 74 76 78 78 77 74 72 74 75 80 80 83 85 82 81 79 76 78 80 80 80 80 80
84 81 82 82 81 79 79 79 81 84 83 84 83 84 83 82 82 79 76 75 75 75 80 76 75 73 73 75 79 81 80 80 83 85 79 78 77 76 75 80 80 80 80
84 84 82 82 80 79 80 79 80 80 82 83 82 82 80 79 81 80 77 77 76 78 80 76 76 74 73 73 80 83 79 82 83 80 81 82 78 77 74 74 73 75 80
85 82 80 79 79 80 78 77 78 78 80 80 82 82 84 81 82 80 83 80 79 81 79 78 79 74 74 74 74 78 79 81 80 81 82 78 79 77 75 73 73 73 74
84 81 80 80 79 79 80 79 79 79 82 83 85 82 82 82 81 83 81 80 78 76 75 70 70 70 76 79 74 73 71 75 75 77 76 79 76 76 75 75 74 73 72
84 82 81 80 80 80 81 80 80 81 81 81 81 82 84 86 86 86 84 82 78 73 70 70 72 72 71 78 79 71 67 66 71 74 74 75 74 72 72 73 74 74 73
85 86 83 81 81 81 81 79 78 78 77 79 80 81 84 86 86 85 84 84 81 71 69 74 73 70 71 74 76 79 74 70 68 69 72 72 73 73 71 71 72 74 74
88 86 85 83 81 82 80 80 79 77 79 80 80 82 83 87 85 87 85 84 83 71 71 74 72 72 75 75 74 73 73 71 70 68 65 69 71 70 71 71 70 70 72
89 88 86 83 82 82 82 79 79 78 79 78 79 79 80 81 82 84 88 84 84 84 78 76 76 79 77 77 75 75 73 71 70 67 66 68 67 68 70 70 70 69 70
MSLP
1015.76 1015.59 1015.63 1015.80 1015.96 1016.14 1016.29 1016.39 1016.47 1016.59 1016.61 1016.60 1016.68 1016.75 1016.77 1016.96 1017.07 1016.99 1017.02 1017.12 1017.19 1017.34 1017.36 1017.33 1017.36 1017.41 1017.42 1017.41 1017.46 1017.54 1017.52 1017.66 1017.84 1018.06 1018.19 1018.28 1018.42 1018.49 1018.63 1018.75 1018.77 1018.98 1019.09
1015.15 1015.60 1015.82 1015.96 1016.17 1016.35 1016.53 1016.61 1016.68 1016.73 1016.72 1016.78 1016.80 1016.93 1017.08 1017.24 1017.26 1017.30 1017.41 1017.47 1017.51 1017.53 1017.52 1017.56 1017.54 1017.43 1017.33 1017.31 1017.41 1017.51 1017.56 1017.67 1017.87 1018.02 1017.99 1018.24 1018.39 1018.47 1018.49 1018.44 1018.54 1019.06 1019.20
1015.18 1015.55 1015.84 1016.07 1016.31 1016.51 1016.70 1016.83 1016.90 1016.93 1016.95 1017.02 1017.08 1017.18 1017.35 1017.49 1017.52 1017.60 1017.60 1017.53 1017.45 1017.47 1017.49 1017.50 1017.42 1017.34 1017.37 1017.57 1017.66 1017.71 1017.89 1018.06 1018.13 1018.15 1018.22 1018.28 1018.32 1018.49 1018.46 1018.46 1018.61 1018.96 1019.18
1014.98 1015.51 1015.89 1016.12 1016.39 1016.62 1016.79 1016.92 1016.97 1017.03 1017.09 1017.18 1017.23 1017.34 1017.48 1017.57 1017.59 1017.64 1017.55 1017.53 1017.56 1017.58 1017.60 1017.46 1017.34 1017.34 1017.38 1017.44 1017.79 1018.08 1018.19 1018.16 1018.36 1018.33 1018.34 1018.11 1017.69 1018.08 1018.48 1018.51 1018.49 1018.83 1018.98
1014.85 1015.52 1015.95 1016.16 1016.40 1016.64 1016.84 1016.95 1017.03 1017.11 1017.21 1017.28 1017.37 1017.45 1017.47 1017.57 1017.72 1017.72 1017.69 1017.77 1017.76 1017.77 1017.71 1017.51 1017.36 1017.29 1017.31 1017.49 1017.60 1017.84 1018.00 1018.10 1018.19 1018.40 1018.47 1018.20 1018.02 1018.16 1018.24 1018.32 1018.28 1018.46 1018.55
1014.73 1015.51 1015.93 1016.17 1016.43 1016.64 1016.84 1017.00 1017.11 1017.19 1017.27 1017.35 1017.44 1017.40 1017.50 1017.68 1017.74 1017.73 1017.83 1017.94 1017.88 1017.94 1017.79 1017.57 1017.51 1017.32 1017.49 1017.69 1017.89 1017.99 1018.22 1018.05 1017.86 1018.01 1018.40 1018.16 1018.15 1018.16 1017.98 1018.12 1018.02 1018.07 1018.36
1014.86 1015.54 1015.91 1016.14 1016.40 1016.68 1016.88 1017.08 1017.21 1017.29 1017.30 1017.36 1017.35 1017.35 1017.57 1017.65 1017.74 1017.84 1017.86 1017.78 1017.76 1017.87 1017.58 1017.49 1017.59 1017.94 1018.00 1018.00 1018.02 1018.14 1018.11 1017.82 1017.79 1018.09 1018.32 1018.34 1018.28 1017.99 1017.86 1017.93 1017.85 1018.10 1018.31
1014.54 1015.41 1015.83 1016.09 1016.28 1016.60 1016.85 1017.03 1017.18 1017.29 1017.35 1017.38 1017.25 1017.36 1017.48 1017.60 1017.72 1017.70 1017.67 1017.56 1017.60 1017.56 1017.35 1017.52 1017.77 1017.94 1017.96 1018.00 1018.12 1018.02 1017.90 1017.97 1017.93 1017.99 1017.75 1017.75 1017.93 1017.96 1017.68 1017.85 1017.90 1017.86 1017.99
1014.29 1015.20 1015.76 1015.99 1016.25 1016.54 1016.81 1016.99 1017.05 1017.10 1017.14 1017.11 1017.04 1017.14 1017.31 1017.45 1017.53 1017.50 1017.44 1017.29 1017.30 1017.20 1017.27 1017.40 1017.48 1017.61 1017.83 1018.16 1018.05 1017.94 1018.12 1018.14 1017.93 1017.56 1017.53 1017.60 1017.50 1017.89 1017.66 1017.67 1017.72 1017.73 1017.71
1014.27 1014.82 1015.52 1015.86 1016.15 1016.46 1016.66 1016.81 1016.87 1016.84 1016.85 1016.83 1016.86 1017.05 1017.21 1017.22 1017.27 1017.18 1017.02 1016.95 1016.93 1016.84 1017.02 1017.25 1017.07 1017.44 1017.41 1017.59 1017.98 1017.37 1017.50 1017.90 1017.78 1017.41 1017.66 1017.29 1017.25 1017.13 1017.29 1017.41 1017.37 1017.41 1017.54
1014.16 1014.71 1015.10 1015.55 1015.86 1016.29 1016.51 1016.58 1016.60 1016.57 1016.60 1016.60 1016.71 1016.88 1016.91 1017.05 1017.24 1016.78 1016.61 1016.42 1016.36 1016.34 1016.41 1016.42 1016.51 1016.75 1017.06 1017.75 1018.07 1018.26 1018.17 1017.84 1017.11 1017.53 1017.69 1017.50 1017.33 1016.81 1016.62 1016.88 1016.99 1017.09 1017.24
1013.94 1014.40 1014.70 1015.00 1015.46 1015.86 1015.88 1016.11 1016.24 1016.27 1016.32 1016.42 1016.53 1016.69 1016.75 1017.05 1016.76 1016.46 1016.35 1016.18 1016.27 1016.34 1016.19 1016.21 1017.33 1016.97 1016.79 1017.62 1017.08 1017.53 1017.93 1017.37 1017.31 1017.45 1017.94 1017.56 1017.70 1017.20 1016.60 1016.48 1016.66 1016.74 1016.87
1013.29 1013.86 1014.20 1014.60 1014.86 1015.26 1015.27 1015.65 1015.80 1015.93 1016.12 1016.30 1016.39 1016.52 1016.64 1016.54 1016.03 1016.15 1016.16 1016.34 1016.40 1016.13 1016.05 1015.90 1016.70 1016.60 1016.61 1017.22 1017.17 1017.11 1017.10 1017.53 1017.09 1016.59 1016.70 1016.72 1016.76 1016.44 1016.53 1016.06 1016.34 1016.48 1016.69
1012.53 1013.06 1013.55 1013.90 1014.42 1014.66 1014.78 1015.23 1015.15 1015.46 1015.68 1016.05 1016.14 1016.18 1016.31 1016.10 1015.72 1016.02 1016.39 1015.98 1015.93 1015.83 1016.04 1015.65 1015.48 1015.49 1016.06 1016.21 1016.51 1016.66 1016.30 1016.59 1016.63 1016.53 1015.95 1016.04 1016.10 1016.14 1016.14 1016.03 1015.97 1016.12 1016.47
1012.23 1012.55 1013.04 1013.63 1014.17 1014.34 1014.72 1014.84 1014.67 1014.68 1015.02 1015.40 1015.67 1015.86 1015.89 1015.83 1015.82 1015.65 1016.11 1015.91 1015.15 1015.28 1015.46 1015.46 1015.21 1015.55 1015.74 1015.49 1015.15 1015.72 1015.68 1015.65 1015.56 1015.69 1015.35 1015.29 1015.67 1016.00 1016.05 1015.85 1015.77 1015.96 1016.18
1011.74 1012.44 1012.88 1013.39 1013.88 1014.07 1014.41 1014.39 1014.44 1014.45 1014.53 1014.87 1015.42 1015.59 1015.63 1015.66 1015.49 1015.65 1015.99 1015.99 1015.34 1015.05 1014.96 1015.25 1014.52 1015.40 1015.44 1014.97 1014.98 1014.68 1014.54 1014.74 1014.73 1014.81 1015.04 1015.50 1015.83 1015.94 1015.87 1015.84 1015.75 1015.70 1015.92
1011.44 1012.24 1012.88 1013.38 1013.74 1014.35 1014.60 1014.50 1014.52 1014.48 1014.45 1014.78 1015.05 1015.30 1015.44 1015.30 1015.34 1016.02 1016.05 1015.85 1015.70 1015.20 1015.57 1014.90 1015.25 1014.72 1014.84 1014.90 1014.54 1013.89 1013.54 1013.03 1013.73 1014.23 1014.43 1015.10 1015.64 1015.70 1015.56 1015.64 1015.74 1015.69 1015.64
1011.34 1012.14 1012.89 1013.35 1013.91 1014.41 1014.72 1014.63 1014.64 1014.59 1014.49 1014.59 1014.92 1015.17 1015.16 1015.02 1015.17 1015.80 1015.66 1015.21 1014.94 1015.85 1015.30 1015.35 1015.43 1015.22 1015.26 1014.74 1014.46 1013.74 1013.69 1013.21 1013.39 1014.08 1014.38 1014.82 1015.29 1015.36 1015.33 1015.42 1015.69 1015.83 1015.70
1011.22 1011.97 1012.56 1013.08 1013.73 1014.33 1014.72 1014.61 1014.67 1014.49 1014.41 1014.42 1014.81 1014.78 1014.95 1014.91 1014.96 1015.15 1015.20 1015.03 1015.20 1015.69 1015.33 1015.88 1015.42 1015.28 1015.51 1015.05 1014.83 1014.38 1014.06 1013.82 1013.70 1013.73 1014.39 1014.75 1014.94 1015.07 1015.30 1015.28 1015.52 1015.72 1015.70
1011.05 1011.66 1012.30 1013.00 1013.50 1014.00 1014.46 1014.62 1014.61 1014.57 1014.33 1014.18 1014.37 1014.78 1015.07 1014.87 1014.72 1015.15 1015.21 1015.33 1015.57 1016.07 1015.48 1015.66 1014.90 1014.95 1015.17 1015.12 1015.05 1014.54 1013.55 1013.55 1013.88 1014.11 1014.40 1014.42 1014.82 1015.18 1015.59 1015.61 1015.54 1015.61 1015.50
1010.93 1011.68 1012.27 1012.95 1013.39 1013.81 1014.39 1014.64 1014.65 1014.60 1014.18 1014.02 1013.99 1014.50 1014.58 1014.26 1014.54 1014.78 1014.85 1014.77 1014.94 1015.60 1015.34 1015.05 1015.33 1015.42 1015.16 1014.89 1015.29 1014.53 1014.43 1014.19 1014.37 1014.22 1014.29 1014.63 1014.72 1015.11 1015.40 1015.61 1015.52 1015.49 1015.33
1010.72 1011.40 1012.14 1012.70 1013.19 1013.48 1013.95 1014.06 1014.11 1014.15 1014.02 1013.79 1013.55 1014.23 1014.28 1014.25 1014.43 1014.32 1014.75 1015.23 1015.40 1015.51 1016.13 1016.19 1016.41 1016.44 1015.66 1014.76 1015.29 1015.40 1015.62 1015.07 1014.90 1014.81 1014.69 1014.83 1015.01 1015.17 1015.36 1015.39 1015.43 1015.38 1015.33
1010.52 1011.03 1011.68 1012.33 1012.77 1013.04 1013.42 1013.73 1013.95 1014.01 1013.88 1013.68 1013.63 1013.68 1013.89 1013.76 1013.82 1013.77 1013.77 1014.45 1015.34 1015.61 1016.46 1016.43 1015.41 1016.48 1016.82 1015.00 1014.93 1015.78 1016.18 1016.07 1015.59 1015.17 1015.06 1014.99 1015.02 1015.26 1015.47 1015.45 1015.41 1015.26 1014.98
1009.94 1010.50 1011.07 1011.72 1012.27 1012.67 1012.98 1013.45 1013.78 1013.77 1013.97 1013.75 1013.55 1013.44 1013.32 1013.24 1013.41 1013.56 1013.57 1013.70 1014.67 1015.60 1016.37 1016.90 1016.45 1016.55 1017.19 1015.65 1014.91 1015.03 1015.64 1015.81 1015.80 1015.69 1015.10 1015.46 1015.44 1015.46 1015.70 1015.73 1015.60 1015.29 1015.00
1009.08 1009.90 1010.50 1011.15 1011.81 1012.16 1012.58 1012.90 1013.39 1013.61 1013.51 1013.39 1013.39 1013.21 1013.08 1013.13 1012.93 1013.00 1012.96 1013.29 1014.05 1015.32 1015.34 1015.68 1015.90 1016.41 1016.24 1015.28 1015.30 1015.30 1015.41 1015.26 1015.58 1015.85 1015.86 1015.92 1015.82 1015.82 1015.72 1015.77 1015.67 1015.48 1015.01
1008.32 1009.09 1009.94 1010.57 1011.08 1011.57 1011.98 1012.38 1012.90 1013.27 1013.30 1013.45 1013.57 1013.54 1013.37 1013.06 1012.99 1013.09 1012.57 1013.00 1013.51 1014.32 1015.10 1015.24 1015.15 1014.89 1014.99 1014.87 1015.06 1015.22 1015.00 1015.23 1015.48 1015.56 1015.98 1015.78 1015.73 1016.06 1015.64 1015.73 1015.72 1015.51 1015.14
Wind_Speed
8 10 16 17 17 17 17 18 16 15 15 15 15 15 15 15 14 14 14 12 12 12 10 10 9 9 8 8 8 8 8 8 9 10 10 10 11 10 9 8 15 12 15
15 11 16 17 17 17 17 16 16 15 15 15 14 14 14 13 12 13 12 11 11 10 9 8 8 7 6 6 6 6 5 6 7 7 7 8 8 9 9 9 14 12 14
15 12 13 16 18 17 16 15 14 14 14 13 13 13 13 12 11 11 10 9 8 7 7 6 6 4 3 3 3 3 4 3 3 3 3 4 4 7 9 11 13 13 13
16 11 12 17 17 17 14 14 13 13 13 12 12 12 11 10 9 8 7 6 5 5 5 4 3 2 1 1 1 2 2 3 2 0 2 3 3 9 8 10 12 11 12
16 12 13 17 17 17 14 13 12 11 11 11 11 11 10 8 7 6 6 5 5 5 4 4 4 4 4 3 3 3 3 4 5 4 2 5 4 3 11 11 12 12 13
16 13 14 17 16 16 14 13 11 10 9 9 9 9 8 6 6 6 5 5 5 5 5 5 5 6 5 5 5 5 6 8 8 4 3 8 7 12 14 13 13 13 13
16 12 13 16 15 14 13 13 11 10 9 8 8 7 7 7 6 6 6 6 6 6 7 7 7 6 7 7 7 6 8 10 6 4 4 5 9 15 14 12 10 12 11
19 13 12 16 15 14 14 14 12 11 9 8 8 7 8 8 8 8 8 8 8 8 9 9 8 8 9 9 8 8 9 11 8 1 8 5 7 12 14 13 12 14 14
18 14 11 10 13 16 14 13 13 11 10 9 9 9 9 8 9 9 10 11 11 11 11 11 11 11 10 10 10 9 9 11 7 4 5 3 13 12 14 15 14 14 14
17 16 13 11 9 7 8 14 12 12 11 11 11 10 10 11 10 11 11 11 13 13 13 13 13 11 11 12 10 12 10 7 3 5 6 5 15 18 17 17 16 16 14
14 15 13 12 11 9 7 9 12 14 13 12 11 12 10 4 5 11 11 14 16 17 15 14 15 12 10 7 12 14 10 2 2 2 4 15 16 19 18 19 18 18 16
16 16 14 13 11 9 9 8 7 8 5 5 6 6 5 5 6 9 12 14 13 14 15 14 9 18 6 8 1 17 3 6 4 6 4 19 18 22 21 21 19 18 18
17 14 14 13 13 12 8 7 5 5 4 5 7 6 5 4 4 4 3 2 3 7 4 5 9 8 9 9 6 7 8 5 7 7 14 26 26 25 21 20 15 16 18
11 10 12 15 14 13 7 7 7 6 7 4 5 6 4 3 3 1 2 3 2 0 6 5 3 3 8 10 7 8 11 10 6 7 11 20 22 20 17 15 13 13 17
10 11 10 8 8 6 4 3 3 6 6 7 6 5 4 4 4 2 2 1 4 3 4 5 6 3 8 8 7 8 9 9 9 5 5 21 16 10 11 11 10 12 13
10 9 11 9 8 4 2 3 1 1 3 5 4 6 6 3 2 4 5 3 5 3 4 5 1 3 6 4 5 10 7 10 7 6 3 4 8 8 10 8 8 9 12
9 13 10 8 8 6 2 1 1 3 2 1 1 6 6 4 3 6 1 4 5 5 5 5 5 1 4 4 7 4 3 6 8 7 7 5 6 11 9 9 8 9 8
11 15 13 11 8 7 4 4 3 4 3 2 4 4 5 4 2 5 4 5 5 4 3 3 1 2 3 4 4 7 3 1 11 9 7 6 5 4 8 10 7 5 3
10 10 10 10 12 9 6 4 5 6 4 3 3 4 4 5 4 5 5 5 3 2 2 2 2 1 1 4 5 6 2 2 8 8 7 6 7 5 4 10 9 6 3
10 12 8 11 11 9 6 4 3 4 4 4 5 4 4 5 5 4 3 4 2 4 4 4 3 2 1 3 6 8 4 5 5 4 6 4 4 5 5 5 3 3 6
11 9 9 10 10 8 4 3 3 4 4 3 3 9 8 6 4 2 3 4 1 2 4 4 4 4 2 3 2 5 4 5 5 5 5 4 5 5 6 4 3 1 2
13 9 9 9 10 7 7 4 3 2 4 3 4 7 7 6 6 5 5 4 3 3 8 8 7 4 5 1 1 1 4 5 3 1 4 4 6 4 5 3 4 3 2
15 13 11 9 9 7 8 4 3 2 2 2 1 3 6 7 4 6 5 4 6 5 5 3 5 2 6 3 1 4 3 1 4 2 1 2 6 4 3 3 3 2 2
16 15 13 11 11 8 8 4 4 4 3 3 3 3 5 7 6 6 7 7 7 6 7 8 5 5 6 3 4 1 2 5 3 3 1 2 4 5 4 1 3 4 0
17 16 14 12 11 10 8 7 5 4 3 3 2 5 5 5 7 7 6 6 4 7 7 8 6 9 8 1 1 2 1 3 3 2 2 1 3 2 2 1 2 1 3
18 17 15 15 13 12 11 9 8 6 6 2 1 0 3 3 3 6 6 4 5 5 10 8 10 6 3 2 1 1 1 2 3 2 1 4 4 2 2 1 1 1 2
Wind_Direction
131 132 122 122 117 109 108 109 108 107 101 95 96 96 94 94 96 96 97 99 99 98 93 88 84 79 73 73 74 73 82 87 89 94 100 105 103 101 94 99 119 119 122
136 134 129 126 119 115 115 113 109 109 103 101 101 98 96 99 100 100 96 97 96 99 97 93 87 84 85 90 88 87 89 92 101 102 108 99 101 106 94 101 124 127 130
133 137 130 127 121 119 118 119 115 113 111 110 108 109 106 103 100 99 103 109 114 114 113 112 111 112 105 85 85 88 73 60 73 88 102 134 125 113 116 114 123 133 134
133 142 135 132 127 127 125 122 122 118 115 115 112 111 111 113 117 120 127 133 137 139 136 139 148 163 196 259 335 14 19 325 338 306 91 103 159 152 140 134 135 140 139
139 141 143 132 129 132 136 133 131 127 126 120 119 122 124 129 136 149 158 166 174 177 179 197 202 215 231 244 262 288 287 292 291 277 268 158 188 218 165 164 153 158 152
129 131 142 138 140 141 141 141 140 139 139 133 133 140 142 150 165 179 186 193 201 203 214 226 232 238 246 254 262 269 286 283 277 278 223 191 177 216 182 178 172 166 160
125 139 146 148 149 150 148 145 149 149 152 153 160 164 169 180 190 201 208 215 224 228 236 238 244 255 256 253 251 255 256 263 268 287 268 209 201 196 181 188 177 168 168
133 145 151 151 152 155 157 156 158 162 168 177 186 192 201 206 210 217 223 229 232 236 241 247 250 250 254 254 259 253 255 267 278 211 260 196 206 197 182 195 186 176 172
138 142 145 153 160 163 164 167 169 174 183 195 209 215 222 227 230 234 236 237 235 238 240 240 244 244 248 255 251 257 264 269 281 278 274 206 204 209 198 202 195 185 178
144 147 160 162 162 168 173 177 182 186 196 208 221 230 236 238 241 246 247 248 246 244 243 249 244 242 242 248 250 246 243 282 356 347 339 237 226 208 206 207 206 194 188
146 154 157 167 170 174 177 185 190 198 204 214 226 237 242 238 238 239 241 240 244 240 243 241 246 235 235 281 337 327 336 163 237 287 285 283 255 217 203 206 209 199 193
158 160 169 172 173 171 179 182 191 203 203 209 220 224 239 239 236 239 233 247 248 234 249 253 356 288 196 75 31 296 272 182 199 241 253 265 257 231 212 209 207 201 195
164 168 176 173 175 179 187 176 195 198 206 212 222 225 235 251 226 207 214 313 292 277 247 245 181 244 119 144 208 213 223 228 228 213 211 233 232 220 214 210 204 205 202
164 159 159 168 176 182 180 184 192 192 199 199 204 199 217 259 282 276 78 238 208 271 301 265 292 219 146 179 200 209 205 199 209 225 214 225 210 216 217 221 209 205 206
166 166 146 143 129 132 161 174 162 174 172 181 191 199 206 236 260 259 131 213 244 229 252 295 273 90 156 194 220 219 205 219 208 217 204 201 203 206 224 224 218 215 215
154 155 144 141 126 125 106 89 148 220 195 160 169 188 213 207 249 27 72 319 285 267 279 264 94 76 221 240 250 220 210 207 192 182 156 171 174 208 217 219 222 227 225
149 141 138 135 135 133 132 196 263 275 254 77 160 160 192 191 246 114 319 198 232 262 330 318 40 17 337 308 247 251 249 196 155 141 141 142 166 185 182 190 203 227 228
146 146 151 153 149 154 177 208 246 277 237 174 140 180 159 203 235 149 196 253 249 34 330 1 275 54 310 336 329 309 309 107 118 141 147 151 172 176 177 174 181 197 215
151 144 163 147 155 162 196 212 233 253 233 194 180 161 151 199 201 173 221 240 291 16 293 233 242 117 341 333 322 306 265 184 134 138 137 170 179 165 161 164 172 190 198
138 148 144 149 155 164 178 208 246 269 249 191 188 142 165 242 254 154 237 301 272 251 244 237 70 21 344 310 315 300 321 134 111 112 122 148 149 144 134 180 182 212 191
141 143 146 151 169 159 163 188 225 233 230 234 184 162 183 229 238 223 198 253 281 249 184 48 35 4 316 307 283 337 13 105 124 144 155 167 130 136 154 180 169 158 227
155 150 156 150 166 170 170 207 190 213 259 212 201 167 189 215 216 234 171 224 142 99 41 40 63 350 306 46 34 31 352 349 12 87 161 137 135 126 126 138 145 129 98
162 162 165 164 174 179 186 195 224 258 345 15 150 194 194 195 192 203 233 183 119 92 88 85 119 221 291 308 99 143 348 302 330 138 206 138 120 122 138 171 162 199 132
170 170 171 168 178 189 196 203 202 192 191 224 213 220 207 201 218 204 210 206 133 123 99 7 289 232 248 283 350 14 197 164 237 325 50 56 107 113 111 228 197 241 237
167 172 178 176 175 188 194 192 199 209 207 245 266 243 201 190 216 226 212 219 191 140 177 186 198 221 233 133 108 315 44 36 71 110 294 200 49 39 112 141 233 61 90
173 175 177 181 188 183 194 200 193 202 223 223 287 182 235 236 241 238 227 204 205 171 175 186 208 208 207 180 178 287 250 198 204 191 36 248 160 194 169 255 320 65 164